Weather History for Eastover, SC

Change the Weather History Date:

Wednesday, February 20, 2013

  Actual Average Record
Temperature  
Mean Temperature 42 °F -  
Max Temperature 59 °F 58 °F 82 °F (2014)
Min Temperature 26 °F 38 °F 24 °F (2009)
Degree Days  
Heating Degree Days 22    
Moisture  
Dew Point 25 °F    
Average Humidity 52    
Maximum Humidity 100    
Minimum Humidity 22    
Precipitation  
Precipitation 0.00 in - - ()
Sea Level Pressure  
Sea Level Pressure 30.11 in    
Wind  
Wind Speed 2 mph (WNW)    
Max Wind Speed 7 mph    
Max Gust Speed -    
Visibility 9 miles    
Events Fog    
Averages and records for this station are not official NWS values.
T = Trace of Precipitation, MM = Missing Value Source: NWS Daily Summary

Daily Weather History Graph

Daily Weather History Graph

Search for Another Location

Airport:

Trip Planner

Search our weather history database for the weather conditions in past years. The results will help you decide how hot, cold, wet, or windy it might be!

Date:

Astronomy

Feb. 20, 2013 Rise Set
Actual Time 7:02 AM EST 6:12 PM EST
Civil Twilight 6:36 AM EST 6:37 PM EST
Nautical Twilight 6:07 AM EST 7:06 PM EST
Astronomical Twilight 5:38 AM EST 7:35 PM EST
Moon 1:40 PM EST (2/20) 3:12 AM EST (2/20)
Length of Visible Light 12h 00m
Length of Day
11h 09m
Waxing Gibbous, 76% of the Moon is Illuminated
Feb 20
Waxing Gibbous
Feb 25
Full
Mar 4
Last Quarter
Mar 11
New
Mar 19
First Quarter

Hourly Weather History & Observations

Time (EST) Temp. Windchill Dew Point Humidity Pressure Visibility Wind Dir Wind Speed Gust Speed Precip Events Conditions
5:44 AM 26.6 °F - 26.6 °F 100% 30.11 in 10.0 mi Calm Calm - N/A Fog Shallow Fog
5:58 AM 26.6 °F - 24.8 °F 93% 30.11 in 10.0 mi Calm Calm - N/A Fog Patches of Fog
6:58 AM 26.6 °F - 24.8 °F 93% 30.12 in 10.0 mi Calm Calm - N/A   Partly Cloudy
7:55 AM 32.0 °F 28.7 °F 30.2 °F 93% 30.14 in 10.0 mi West 3.5 mph - N/A   Partly Cloudy
8:55 AM 39.2 °F 37.0 °F 28.4 °F 65% 30.15 in 10.0 mi NW 3.5 mph - N/A   Light Drizzle
8:58 AM 39.2 °F 37.0 °F 26.6 °F 61% 30.15 in 10.0 mi Variable 3.5 mph - N/A   Light Drizzle
9:05 AM 41.0 °F 38.0 °F 26.6 °F 57% 30.15 in 10.0 mi WNW 4.6 mph - N/A   Clear
9:58 AM 44.6 °F - 27.5 °F 51% 30.17 in 10.0 mi Calm Calm - N/A   Partly Cloudy
10:58 AM 47.7 °F - 24.8 °F 41% 30.16 in 10.0 mi Variable 1.2 mph - N/A   Scattered Clouds
11:27 AM 50.0 °F - 19.4 °F 30% 30.14 in 10.0 mi SW 5.8 mph - N/A   Light Drizzle
11:36 AM 51.8 °F - 19.4 °F 28% 30.14 in 10.0 mi Variable 2.3 mph - N/A   Clear
11:54 AM 51.8 °F - 17.6 °F 26% 30.12 in 10.0 mi Variable 2.3 mph - N/A   Clear
11:55 AM 51.8 °F - 17.6 °F 26% 30.13 in 10.0 mi Variable 3.5 mph - N/A   Partly Cloudy
12:54 PM 53.6 °F - 17.6 °F 24% 30.09 in 10.0 mi Variable 2.3 mph - N/A   Clear
12:55 PM 53.6 °F - 17.6 °F 24% 30.10 in 10.0 mi Calm Calm - N/A   Scattered Clouds
1:55 PM 56.5 °F - 18.5 °F 23% 30.07 in 10.0 mi Variable 4.6 mph - N/A   Scattered Clouds
2:58 PM 58.1 °F - 19.0 °F 22% 30.07 in 10.0 mi West 6.9 mph - N/A   Scattered Clouds
3:58 PM 59.0 °F - 20.7 °F 23% 30.06 in 7.0 mi West 4.6 mph - N/A   Scattered Clouds
4:58 PM 57.2 °F - 22.8 °F 27% 30.06 in 10.0 mi WSW 6.9 mph - N/A   Mostly Cloudy
5:58 PM 54.3 °F - 26.4 °F 34% 30.10 in 7.0 mi WNW 3.5 mph - N/A   Mostly Cloudy
6:58 PM 51.6 °F - 25.9 °F 37% 30.12 in 7.0 mi WSW 4.6 mph - N/A   Overcast
7:58 PM 46.8 °F - 34.0 °F 61% 30.08 in 7.0 mi ENE 2.3 mph - N/A   Mostly Cloudy
8:58 PM 45.0 °F - 35.1 °F 68% 30.09 in 7.0 mi Calm Calm - N/A   Mostly Cloudy
9:58 PM 41.2 °F - 34.2 °F 76% 30.10 in 7.0 mi NNE 1.2 mph - N/A   Clear
10:58 PM 37.2 °F - 31.3 °F 79% 30.12 in 7.0 mi NE 2.3 mph - N/A   Clear
11:58 PM 35.1 °F - 32.2 °F 89% 30.10 in 10.0 mi Calm Calm - N/A   Clear